sat.trackr.live / text

‹ back to catalog

STARLINK-32758

NORAD 62744 · 2025-014K

PAYLOAD ACTIVE UNKNOWN

§ Identity

Operator
Country
US
Launch date
2025-01-21
Launch site
AFETR
Launch vehicle
Mass (kg)
RCS (m²)

Purposes: comms

External: N2YO · Heavens-Above · Gunter

§ Orbital elements

Epoch: 2026-05-24T23:11:33.033120Z

Period
94.27 min
Inclination
43.0037°
Eccentricity
0.0001346
Mean motion
15.27592960 rev/d
Perigee alt
482.1 km
Apogee alt
483.9 km
Semi-major
6,861.1 km
B*
5.5278e-4
RAAN
87.0172°
Arg perigee
251.2592°
Mean anomaly
108.8113°
Rev number
7,488

§ Raw data

STARLINK-327581 62744U 25014K   26144.96635455  .00014986  00000+0  55278-3 0  99922 62744  43.0037  87.0172 0001346 251.2592 108.8113 15.27592960 74882

JSON: /api/v1/satellites/62744 · /tle

For live sub-satellite position, see the globe view (requires WebGL).

§ Visibility from observer

Set your observer location to see the next 7 days of passes ≥ 10°. The values pass through the URL so the page stays shareable.

No JS? Fill the form by hand. The geolocation button needs JavaScript.